Location: ??????????
(54.7560°N, 39.1389°E)
Time: 02:58:14
(UTC+00:00)

Cosmos 1833 Rocket - Pass Details

Date: 19 May 2025
Orbit: 831 x 839 km, 71.0° (Epoch: 15 June)

Event Time Altitude Azimuth Distance (km) Brightness Sun altitude
Rises 18:42:02 0° 201° (SSW) 3,380 5.5 -8.1°
Reaches altitude 10° 18:44:28 10° 199° (SSW) 2,450 4.8 -8.3°
Maximum altitude 18:50:03 68° 118° (ESE) 904 2.7 -8.7°
Drops below altitude 10° 18:55:40 10° 36° (NE) 2,466 5.4 -9.2°
Sets 18:58:08 0° 35° (NE) 3,404 6.2 -9.4°
